New Bern, NC

6:56 PM EST on November 14, 2019 (GMT -0500)
Craven County Regional

Weather History for KEWN - October, 2019

Change the Weather History Date:

Wednesday, October 23, 2019

  Actual Average Record
Temperature  
Mean Temperature 62 °F 62 °F  
Max Temperature 73 °F 73 °F 86 °F (2007)
Min Temperature 50 °F 51 °F 35 °F (1952)
Degree Days  
Heating Degree Days 4 5  
Month to date heating degree days 39 64  
Since 1 July heating degree days 39 71  
Cooling Degree Days 0 2  
Month to date cooling degree days 103 72  
Year to date cooling degree days 2250 1875  
Growing Degree Days 12 (Base 50)    
Moisture  
Dew Point 55 °F    
Average Humidity 81    
Maximum Humidity 100    
Minimum Humidity 43    
Precipitation  
Precipitation 0.00 in 0.09 in 2.75 in (1971)
Month to date precipitation 2.20 2.52  
Year to date precipitation 38.99 45.21  
Snow  
Snow 0.00 in - - ()
Month to date snowfall 0.0  
Since 1 July snowfall 0.0  
Snow Depth 0.00 in    
Sea Level Pressure  
Sea Level Pressure 30.07 in    
Wind  
Wind Speed 4 mph ()    
Max Wind Speed 16 mph    
Max Gust Speed 21 mph    
Visibility 9.0 miles    
Events      
T = Trace of Precipitation, MM = Missing Value Source: Averaged Metar Reports

Daily Weather History Graph

Daily Weather History Graph

Search for Another Location

Airport or City:

Astronomy

Oct. 23, 2019 Rise Set
Actual Time 7:20 AM EDT 6:23 PM EDT
Civil Twilight 6:55 AM EDT 6:49 PM EDT
Nautical Twilight 6:25 AM EDT 7:19 PM EDT
Astronomical Twilight 5:56 AM EDT 7:48 PM EDT
Moon 1:53 AM EDT (10/23) 3:57 PM EDT (10/23)
Length of Visible Light 11h 54m
Length of Day
11h 02m
Waning Crescent, 27% of the Moon is Illuminated
Oct 23
Waning Crescent
Oct 27
New
Nov 4
First Quarter
Nov 12
Full
Nov 19
Last Quarter

Hourly Weather History & Observations

Time (EDT) Temp. Dew Point Humidity Pressure Visibility Wind Dir Wind Speed Gust Speed Precip Events Conditions
12:54 AM 69.1 °F 66.0 °F 90% 29.89 in 10.0 mi WNW 4.6 mph - N/A   Scattered Clouds
1:54 AM 66.9 °F 62.1 °F 84% 29.90 in 10.0 mi North 6.9 mph - N/A   Clear
2:54 AM 64.0 °F 60.1 °F 87% 29.91 in 10.0 mi NW 4.6 mph - N/A   Clear
3:54 AM 61.0 °F 60.1 °F 97% 29.93 in 10.0 mi WNW 4.6 mph - N/A   Clear
4:54 AM 60.1 °F 60.1 °F 100% 29.96 in 10.0 mi WNW 4.6 mph - N/A   Clear
5:54 AM 60.1 °F 60.1 °F 100% 29.98 in 10.0 mi Calm Calm - N/A   Clear
6:23 AM 57.0 °F 57.0 °F 100% 29.99 in 2.0 mi Calm Calm - N/A   Clear
6:38 AM 57.9 °F 57.9 °F 100% 29.99 in 7.0 mi Calm Calm - N/A   Clear
6:54 AM 57.0 °F 57.0 °F 100% 30.00 in 7.0 mi Calm Calm - N/A   Clear
6:56 AM 57.0 °F 57.0 °F 100% 30.00 in 0.8 mi Calm Calm - N/A   Mist
7:05 AM 57.0 °F 57.0 °F 100% 30.00 in 7.0 mi Calm Calm - N/A   Clear
7:54 AM 59.0 °F 59.0 °F 100% 30.04 in 10.0 mi NNW 6.9 mph - N/A   Clear
8:54 AM 61.0 °F 55.9 °F 83% 30.08 in 10.0 mi NNW 10.4 mph - N/A   Clear
9:54 AM 63.0 °F 52.0 °F 67% 30.10 in 10.0 mi NNW 13.8 mph - N/A   Clear
10:54 AM 66.0 °F 50.0 °F 56% 30.11 in 10.0 mi North 11.5 mph - N/A   Clear
12:54 PM 70.0 °F 50.0 °F 49% 30.11 in 10.0 mi North 9.2 mph - N/A   Clear
1:54 PM 70.0 °F 50.0 °F 49% 30.09 in 10.0 mi NNE 8.1 mph - N/A   Clear
2:54 PM 73.0 °F 50.0 °F 44% 30.10 in 10.0 mi Variable 4.6 mph - N/A   Clear
3:54 PM 73.0 °F 50.0 °F 44% 30.11 in 10.0 mi NW 3.5 mph - N/A   Clear
4:54 PM 72.0 °F 48.0 °F 43% 30.12 in 10.0 mi WNW 5.8 mph - N/A   Clear
5:54 PM 69.1 °F 48.9 °F 49% 30.14 in 10.0 mi WNW 4.6 mph - N/A   Clear
6:54 PM 60.1 °F 53.1 °F 78% 30.17 in 10.0 mi Calm Calm - N/A   Clear
7:54 PM 55.0 °F 52.0 °F 89% 30.19 in 10.0 mi Calm Calm - N/A   Clear
8:54 PM 53.1 °F 51.1 °F 93% 30.21 in 10.0 mi Calm Calm - N/A   Clear
9:54 PM 54.0 °F 52.0 °F 93% 30.23 in 10.0 mi SSW 3.5 mph - N/A   Clear
10:54 PM 54.0 °F 52.0 °F 93% 30.25 in 10.0 mi Calm Calm - N/A   Clear
11:54 PM 53.1 °F 52.0 °F 96% 30.25 in 10.0 mi Calm Calm - N/A   Clear